Location: Platte
(43.3870°N, 98.8440°W)
Time: 23:02:10
(UTC-05:00)

SPOT 1/Viking Rocket - Pass Details

Date: 21 May 2018
Orbit: 777 x 795 km, 98.6° (Epoch: 19 October)

Event Time Altitude Azimuth Distance (km) Brightness Sun altitude
Exits shadow 23:21:32 31° 185° (S) 1,364 4.4 -19.6°
Maximum altitude 23:24:02 66° 258° (WSW) 859 3.8 -19.8°
Drops below altitude 10° 23:29:11 10° 341° (NNW) 2,348 7.2 -20.3°
Sets 23:31:32 0° 344° (NNW) 3,279 8.2 -20.5°
